Previsão horária em Ablis

Hoje, 22 Junho, Terça-feira

Tempo Temperatura Precipitação Vento Pressão Humidade
00:00 +14°C° 0 mm 1 m/s 743 mmHg 91%
01:00 +14°C° 0 mm 1 m/s 743 mmHg 92%
02:00 +14°C° 0 mm 1 m/s 743 mmHg 92%
03:00 +13°C° 0 mm 1 m/s 744 mmHg 93%
04:00 +14°C° 0 mm 1 m/s 744 mmHg 93%
05:00 +14°C° 0 mm 1 m/s 744 mmHg 92%
06:00 +15°C° 0 mm 1 m/s 744 mmHg 91%
07:00 +16°C° 0.1 mm 1 m/s 745 mmHg 88%
08:00 +18°C° 0.1 mm 1 m/s 745 mmHg 85%
09:00 +19°C° 0.1 mm 1 m/s 745 mmHg 81%
10:00 +18°C° 0.5 mm 2 m/s 746 mmHg 80%
11:00 +19°C° 0.5 mm 2 m/s 746 mmHg 80%
12:00 +19°C° 0.5 mm 3 m/s 746 mmHg 79%
13:00 +19°C° 0.4 mm 3 m/s 746 mmHg 79%
14:00 +19°C° 0.4 mm 4 m/s 747 mmHg 79%
15:00 +19°C° 0.4 mm 5 m/s 747 mmHg 79%
16:00 +17°C° 0.2 mm 5 m/s 747 mmHg 79%
17:00 +17°C° 0.2 mm 5 m/s 747 mmHg 80%
18:00 +16°C° 0.2 mm 5 m/s 748 mmHg 80%
19:00 +15°C° 0.1 mm 5 m/s 748 mmHg 82%
20:00 +14°C° 0.1 mm 5 m/s 749 mmHg 85%
21:00 +13°C° 0.1 mm 6 m/s 749 mmHg 87%
22:00 +13°C° 0 mm 5 m/s 749 mmHg 88%
23:00 +12°C° 0 mm 5 m/s 749 mmHg 89%

Amanhã, 23 Junho, Quarta-feira

Tempo Temperatura Precipitação Vento Pressão Humidade
00:00 +11°C° 0 mm 4 m/s 750 mmHg 91%
01:00 +12°C° 0 mm 4 m/s 750 mmHg 90%
02:00 +12°C° 0 mm 4 m/s 750 mmHg 90%
03:00 +12°C° 0 mm 4 m/s 750 mmHg 89%
04:00 +12°C° 0 mm 4 m/s 750 mmHg 88%
05:00 +12°C° 0 mm 4 m/s 750 mmHg 87%
06:00 +13°C° 0 mm 4 m/s 750 mmHg 86%
07:00 +14°C° 0 mm 4 m/s 751 mmHg 81%
08:00 +14°C° 0 mm 4 m/s 751 mmHg 77%
09:00 +15°C° 0 mm 4 m/s 751 mmHg 73%
10:00 +17°C° 0 mm 4 m/s 751 mmHg 70%
11:00 +18°C° 0 mm 4 m/s 751 mmHg 67%
12:00 +19°C° 0 mm 4 m/s 751 mmHg 64%
13:00 +19°C° 0 mm 4 m/s 751 mmHg 65%
14:00 +19°C° 0 mm 4 m/s 751 mmHg 66%
15:00 +18°C° 0 mm 4 m/s 751 mmHg 67%
16:00 +18°C° 0 mm 4 m/s 751 mmHg 68%
17:00 +18°C° 0 mm 4 m/s 751 mmHg 69%
18:00 +17°C° 0 mm 4 m/s 751 mmHg 70%
19:00 +17°C° 0 mm 4 m/s 751 mmHg 73%
20:00 +15°C° 0 mm 4 m/s 751 mmHg 76%
21:00 +16°C° 0 mm 3 m/s 751 mmHg 79%
22:00 +14°C° 0 mm 3 m/s 751 mmHg 80%
23:00 +14°C° 0 mm 4 m/s 751 mmHg 81%

Depois de amanhã, 24 Junho, Quinta-feira

Tempo Temperatura Precipitação Vento Pressão Humidade
00:00 +14°C° 0 mm 4 m/s 751 mmHg 82%
01:00 +14°C° 0 mm 4 m/s 751 mmHg 82%
02:00 +13°C° 0 mm 4 m/s 751 mmHg 81%
03:00 +13°C° 0 mm 4 m/s 751 mmHg 81%
04:00 +13°C° 0 mm 4 m/s 751 mmHg 82%
05:00 +13°C° 0 mm 4 m/s 751 mmHg 82%
06:00 +13°C° 0 mm 4 m/s 750 mmHg 83%
07:00 +13°C° 0 mm 4 m/s 751 mmHg 83%
08:00 +13°C° 0 mm 4 m/s 751 mmHg 83%
09:00 +14°C° 0 mm 4 m/s 751 mmHg 84%
10:00 +14°C° 0.1 mm 4 m/s 751 mmHg 85%
11:00 +14°C° 0.1 mm 4 m/s 751 mmHg 86%
12:00 +14°C° 0.1 mm 4 m/s 751 mmHg 87%
13:00 +14°C° 0.4 mm 4 m/s 751 mmHg 90%
14:00 +14°C° 0.4 mm 4 m/s 751 mmHg 92%
15:00 +14°C° 0.4 mm 4 m/s 751 mmHg 94%
16:00 +14°C° 0.3 mm 4 m/s 751 mmHg 94%
17:00 +14°C° 0.3 mm 4 m/s 751 mmHg 95%
18:00 +13°C° 0.3 mm 4 m/s 751 mmHg 95%
19:00 +13°C° 0.4 mm 4 m/s 752 mmHg 95%
20:00 +13°C° 0.4 mm 3 m/s 752 mmHg 95%
21:00 +13°C° 0.4 mm 3 m/s 752 mmHg 95%
22:00 +12°C° 0.5 mm 3 m/s 752 mmHg 94%
23:00 +12°C° 0.5 mm 3 m/s 752 mmHg 94%

25 Junho, Sexta-feira

Tempo Temperatura Precipitação Vento Pressão Humidade
00:00 +12°C° 0.5 mm 3 m/s 752 mmHg 93%
01:00 +11°C° 0.2 mm 3 m/s 752 mmHg 92%
02:00 +12°C° 0.2 mm 2 m/s 752 mmHg 91%
03:00 +12°C° 0.2 mm 2 m/s 752 mmHg 91%
04:00 +12°C° 0.1 mm 2 m/s 752 mmHg 89%
05:00 +12°C° 0.1 mm 2 m/s 753 mmHg 88%
06:00 +12°C° 0.1 mm 2 m/s 753 mmHg 87%
07:00 +13°C° 0 mm 2 m/s 753 mmHg 82%
08:00 +14°C° 0 mm 2 m/s 753 mmHg 78%
09:00 +15°C° 0 mm 2 m/s 753 mmHg 73%
10:00 +17°C° 0 mm 2 m/s 753 mmHg 67%
11:00 +20°C° 0 mm 1 m/s 753 mmHg 61%
12:00 +21°C° 0 mm 1 m/s 753 mmHg 54%
13:00 +22°C° 0 mm 1 m/s 753 mmHg 53%
14:00 +23°C° 0 mm 1 m/s 753 mmHg 51%
15:00 +24°C° 0 mm 1 m/s 752 mmHg 50%
16:00 +23°C° 0 mm 2 m/s 752 mmHg 56%
17:00 +23°C° 0 mm 2 m/s 752 mmHg 63%
18:00 +21°C° 0 mm 3 m/s 752 mmHg 69%
19:00 +19°C° 0 mm 2 m/s 752 mmHg 74%
20:00 +18°C° 0 mm 2 m/s 752 mmHg 79%
21:00 +16°C° 0 mm 2 m/s 753 mmHg 84%
22:00 +16°C° 0 mm 2 m/s 753 mmHg 85%
23:00 +15°C° 0 mm 2 m/s 752 mmHg 86%

26 Junho, Sábado

Tempo Temperatura Precipitação Vento Pressão Humidade
00:00 +15°C° 0 mm 1 m/s 752 mmHg 87%
01:00 +14°C° 0 mm 1 m/s 752 mmHg 87%
02:00 +14°C° 0 mm 1 m/s 752 mmHg 87%
03:00 +14°C° 0 mm 1 m/s 752 mmHg 87%
04:00 +14°C° 0 mm 1 m/s 752 mmHg 85%
05:00 +15°C° 0 mm 1 m/s 752 mmHg 83%
06:00 +16°C° 0 mm 1 m/s 752 mmHg 81%
07:00 +18°C° 0 mm 2 m/s 752 mmHg 74%
08:00 +19°C° 0 mm 2 m/s 752 mmHg 67%
09:00 +21°C° 0 mm 2 m/s 752 mmHg 60%
10:00 +23°C° 0 mm 2 m/s 751 mmHg 57%
11:00 +24°C° 0 mm 2 m/s 751 mmHg 55%
12:00 +25°C° 0 mm 2 m/s 751 mmHg 52%
13:00 +25°C° 0 mm 2 m/s 751 mmHg 52%
14:00 +26°C° 0 mm 2 m/s 750 mmHg 53%
15:00 +26°C° 0 mm 2 m/s 750 mmHg 53%
16:00 +25°C° 0 mm 2 m/s 750 mmHg 60%
17:00 +24°C° 0 mm 2 m/s 750 mmHg 66%
18:00 +23°C° 0 mm 2 m/s 749 mmHg 73%
19:00 +21°C° 0 mm 2 m/s 749 mmHg 77%
20:00 +20°C° 0 mm 2 m/s 749 mmHg 82%
21:00 +18°C° 0 mm 2 m/s 749 mmHg 86%
22:00 +18°C° 0 mm 2 m/s 749 mmHg 88%
23:00 +17°C° 0 mm 2 m/s 749 mmHg 89%

27 Junho, Domingo

Tempo Temperatura Precipitação Vento Pressão Humidade
00:00 +18°C° 0 mm 1 m/s 749 mmHg 91%
01:00 +18°C° 0 mm 1 m/s 749 mmHg 91%
02:00 +18°C° 0 mm 1 m/s 749 mmHg 92%
03:00 +16°C° 0 mm 1 m/s 748 mmHg 92%
04:00 +18°C° 0 mm 1 m/s 748 mmHg 90%
05:00 +19°C° 0 mm 1 m/s 748 mmHg 88%
06:00 +20°C° 0 mm 1 m/s 748 mmHg 85%
07:00 +20°C° 0 mm 2 m/s 748 mmHg 79%
08:00 +23°C° 0 mm 2 m/s 748 mmHg 72%
09:00 +25°C° 0 mm 2 m/s 748 mmHg 65%
10:00 +26°C° 0 mm 3 m/s 748 mmHg 61%
11:00 +27°C° 0 mm 3 m/s 748 mmHg 56%
12:00 +28°C° 0 mm 3 m/s 748 mmHg 52%
13:00 +28°C° 0 mm 4 m/s 748 mmHg 51%
14:00 +29°C° 0 mm 4 m/s 748 mmHg 50%
15:00 +29°C° 0 mm 4 m/s 748 mmHg 50%
16:00 +28°C° 0 mm 4 m/s 748 mmHg 55%
17:00 +27°C° 0 mm 4 m/s 748 mmHg 60%
18:00 +26°C° 0 mm 3 m/s 748 mmHg 65%
19:00 +24°C° 0 mm 3 m/s 749 mmHg 74%
20:00 +21°C° 0 mm 3 m/s 749 mmHg 82%
21:00 +18°C° 0 mm 3 m/s 749 mmHg 91%
22:00 +17°C° 0 mm 3 m/s 749 mmHg 92%
23:00 +17°C° 0 mm 3 m/s 750 mmHg 93%
Mostrar mais

Necessitamos do seu Consentimento

A Meteoprog e os seus Fornecedores de Serviços podem armazenar e aceder a dados pessoais como cookies, identificadores do dispositivo ou outras tecnologias semelhantes existentes no seu dispositivo e processar estes dados para personalizar conteúdos e anúncios, assim como funcionalidades nas redes sociais e análise de tráfego.

  • Armazenar e/ou aceder a informações no seu dispositivo

    Os cookies, identificadores do dispositivo ou outras informações podem ser armazenados ou acedidos no seu dispositivo, para os fins acima indicados.

  • Anúncios e conteúdos personalizados, medição de anúncios e conteúdos, dados sobre o público-alvo e desenvolvimento de produtos

    Os anúncios e os conteúdos podem ser personalizados com base num perfil. Podem ser adicionados dados adicionais para uma maior personalização dos anúncios e dos conteúdos. A eficácia dos anúncios e dos conteúdos pode ser medida. Podem ser obtidas informações sobre o público que visualizou os anúncios e os conteúdos. Estes dados podem ser usados para desenvolver ou melhorar sistemas, softwares ou a experiência do utilizador.

Ao clicar em "Eu concordo”, permitirá o uso de cookies, identificadores do dispositivo e web beacons mencionados ou outras tecnologias semelhantes. As configurações do navegador do seu dispositivo podem ser alteradas.

Para certos fins, podem ser invocados interesses legítimos ao invés de consentimento. Pode ler mais informação sobre este assunto na nossa Política de Privacidade e Cookies.